�������l�o���
Date,Time,MP-1(��Sv/h),MP-2(��Sv/h),MP-3(��Sv/h),MP-4(��Sv/h),MP-5(��Sv/h),MP-6(��Sv/h),MP-7(��Sv/h),MP-8(��Sv/h),����,����(m/s),���J
2020/02/23,00:00,0.691,0.981,0.651,1.216,0.865,0.401,0.695,0.662,��,11.9,��
2020/02/23,00:10,0.691,0.983,0.653,1.215,0.864,0.400,0.696,0.662,��,12.8,��
2020/02/23,00:20,0.692,0.982,0.652,1.213,0.863,0.401,0.697,0.662,��,13.8,��
2020/02/23,00:30,0.692,0.982,0.650,1.217,0.866,0.400,0.696,0.662,��,11.4,��
2020/02/23,00:40,0.691,0.983,0.652,1.217,0.864,0.401,0.697,0.660,��,8.8,��
2020/02/23,00:50,0.691,0.982,0.652,1.215,0.866,0.401,0.695,0.662,���k��,9.7,��
2020/02/23,01:00,0.693,0.983,0.652,1.217,0.864,0.400,0.698,0.661,��,6.8,��
2020/02/23,01:10,0.692,0.984,0.651,1.214,0.865,0.402,0.697,0.661,��,6.1,��
2020/02/23,01:20,0.691,0.983,0.652,1.218,0.868,0.400,0.697,0.662,��,9.8,��
2020/02/23,01:30,0.690,0.983,0.652,1.214,0.865,0.399,0.697,0.662,��,8.3,��
2020/02/23,01:40,0.691,0.984,0.652,1.216,0.867,0.401,0.699,0.662,��,6.3,��
2020/02/23,01:50,0.692,0.983,0.653,1.214,0.864,0.401,0.698,0.659,��,7.4,��
2020/02/23,02:00,0.691,0.984,0.652,1.217,0.865,0.401,0.696,0.663,��,6.3,��
2020/02/23,02:10,0.690,0.984,0.652,1.214,0.866,0.400,0.697,0.662,���k��,6.7,��
2020/02/23,02:20,0.690,0.984,0.653,1.216,0.865,0.400,0.696,0.662,��,5.4,��
2020/02/23,02:30,0.693,0.983,0.653,1.216,0.866,0.400,0.697,0.663,���k��,8.9,��
2020/02/23,02:40,0.692,0.985,0.651,1.217,0.865,0.402,0.697,0.660,��,8.1,��
2020/02/23,02:50,0.691,0.983,0.652,1.218,0.865,0.400,0.696,0.662,��,6.5,��
2020/02/23,03:00,0.690,0.983,0.651,1.216,0.867,0.401,0.698,0.660,���쐼,3.9,��
2020/02/23,03:10,0.690,0.985,0.652,1.217,0.866,0.402,0.699,0.661,���쐼,4.7,��
2020/02/23,03:20,0.692,0.983,0.653,1.215,0.867,0.400,0.699,0.662,��,5.2,��
2020/02/23,03:30,0.692,0.984,0.653,1.218,0.866,0.401,0.698,0.663,��,5.8,��
2020/02/23,03:40,0.690,0.984,0.654,1.219,0.867,0.402,0.698,0.662,��,8.1,��
2020/02/23,03:50,0.692,0.982,0.653,1.215,0.865,0.401,0.698,0.661,���k��,9.6,�L
2020/02/23,04:00,0.689,0.983,0.651,1.217,0.865,0.400,0.699,0.661,���쐼,8.1,�L
2020/02/23,04:10,0.691,0.981,0.652,1.216,0.867,0.401,0.699,0.661,��,9.6,��
2020/02/23,04:20,0.690,0.983,0.652,1.218,0.866,0.401,0.699,0.661,���쐼,8.2,��
2020/02/23,04:30,0.689,0.981,0.651,1.218,0.868,0.401,0.698,0.662,��,11.1,��
2020/02/23,04:40,0.691,0.986,0.652,1.218,0.868,0.399,0.698,0.662,���쐼,8.2,��
2020/02/23,04:50,0.692,0.981,0.652,1.215,0.868,0.401,0.697,0.662,���쐼,8.5,�L
2020/02/23,05:00,0.691,0.983,0.652,1.220,0.866,0.400,0.699,0.662,���쐼,8.1,�L
2020/02/23,05:10,0.690,0.982,0.652,1.217,0.866,0.402,0.698,0.661,���쐼,9.0,��
2020/02/23,05:20,0.691,0.986,0.653,1.219,0.867,0.400,0.698,0.664,���쐼,11.4,�L
2020/02/23,05:30,0.690,0.983,0.653,1.218,0.867,0.402,0.698,0.662,��,13.8,�L
2020/02/23,05:40,0.691,0.981,0.652,1.219,0.868,0.401,0.696,0.662,���쐼,8.4,�L
2020/02/23,05:50,0.691,0.983,0.653,1.218,0.868,0.401,0.698,0.662,���쐼,9.2,�L
2020/02/23,06:00,0.691,0.984,0.652,1.218,0.867,0.401,0.697,0.664,���쐼,9.4,�L
2020/02/23,06:10,0.691,0.984,0.652,1.217,0.868,0.402,0.699,0.662,���쐼,8.5,��
2020/02/23,06:20,0.693,0.984,0.650,1.214,0.867,0.401,0.697,0.662,���쐼,9.5,��
2020/02/23,06:30,0.690,0.983,0.652,1.217,0.866,0.402,0.698,0.662,���쐼,9.6,��
2020/02/23,06:40,0.691,0.984,0.652,1.219,0.867,0.402,0.698,0.662,���쐼,8.5,��
2020/02/23,06:50,0.692,0.983,0.652,1.218,0.867,0.401,0.697,0.663,���쐼,7.8,��
2020/02/23,07:00,0.694,0.984,0.653,1.220,0.868,0.402,0.699,0.663,���쐼,10.6,�L
2020/02/23,07:10,0.693,0.985,0.654,1.220,0.868,0.403,0.700,0.662,���쐼,10.9,�L
2020/02/23,07:20,0.691,0.987,0.653,1.220,0.872,0.404,0.698,0.663,���쐼,10.7,�L
2020/02/23,07:30,0.693,0.986,0.656,1.220,0.869,0.403,0.699,0.664,���쐼,9.0,�L
2020/02/23,07:40,0.691,0.985,0.654,1.220,0.869,0.402,0.697,0.662,���쐼,7.9,�L
2020/02/23,07:50,0.693,0.984,0.654,1.221,0.868,0.404,0.698,0.663,���쐼,8.5,��
2020/02/23,08:00,0.692,0.986,0.654,1.222,0.870,0.405,0.699,0.663,��,10.6,��
2020/02/23,08:10,0.693,0.986,0.654,1.220,0.869,0.403,0.700,0.665,���쐼,8.8,�L
2020/02/23,08:20,0.694,0.986,0.654,1.221,0.870,0.402,0.700,0.663,���쐼,10.8,�L
2020/02/23,08:30,0.693,0.988,0.654,1.221,0.868,0.403,0.700,0.663,��,10.7,�L
2020/02/23,08:40,0.693,0.987,0.655,1.223,0.868,0.401,0.700,0.662,��,9.7,�L
2020/02/23,08:50,0.693,0.988,0.655,1.223,0.870,0.404,0.700,0.664,���쐼,11.4,�L
2020/02/23,09:00,0.694,0.988,0.656,1.222,0.871,0.405,0.697,0.663,���쐼,12.2,�L
2020/02/23,09:10,0.696,0.987,0.658,1.223,0.873,0.409,0.698,0.662,���쐼,9.4,�L
2020/02/23,09:20,0.696,0.989,0.656,1.222,0.871,0.408,0.699,0.666,��,9.3,�L
2020/02/23,09:30,0.698,0.988,0.659,1.224,0.870,0.407,0.698,0.664,��,11.0,�L
2020/02/23,09:40,0.696,0.991,0.658,1.224,0.872,0.409,0.700,0.664,��,13.0,�L
2020/02/23,09:50,0.696,0.993,0.658,1.227,0.873,0.408,0.699,0.664,��,13.0,��
2020/02/23,10:00,0.696,0.990,0.657,1.225,0.872,0.408,0.698,0.663,��,11.0,��
2020/02/23,10:10,0.697,0.990,0.657,1.223,0.871,0.406,0.698,0.666,��,14.4,�L
2020/02/23,10:20,0.696,0.990,0.658,1.225,0.870,0.406,0.698,0.664,��,11.0,�L
2020/02/23,10:30,0.696,0.990,0.657,1.225,0.871,0.406,0.698,0.664,��,11.4,��
2020/02/23,10:40,0.697,0.990,0.658,1.225,0.872,0.405,0.699,0.665,��,12.7,�L
2020/02/23,10:50,0.697,0.990,0.658,1.225,0.871,0.405,0.697,0.663,��,10.9,�L
2020/02/23,11:00,0.695,0.990,0.657,1.226,0.873,0.404,0.699,0.662,��,11.6,�L
2020/02/23,11:10,0.697,0.992,0.658,1.226,0.872,0.406,0.697,0.664,��,11.8,�L
2020/02/23,11:20,0.696,0.991,0.657,1.229,0.873,0.404,0.697,0.662,��,11.6,��
2020/02/23,11:30,0.695,0.988,0.660,1.227,0.873,0.404,0.696,0.663,��,11.1,��
2020/02/23,11:40,0.697,0.989,0.658,1.228,0.872,0.405,0.695,0.665,��,9.8,��
2020/02/23,11:50,0.696,0.990,0.656,1.227,0.871,0.404,0.696,0.666,��,12.7,��
2020/02/23,12:00,0.697,0.992,0.657,1.225,0.872,0.404,0.697,0.664,��,12.7,�L
2020/02/23,12:10,0.695,0.990,0.657,1.227,0.872,0.403,0.697,0.664,��,11.1,��
2020/02/23,12:20,0.694,0.992,0.657,1.225,0.873,0.403,0.698,0.665,��,13.1,��
2020/02/23,12:30,0.695,0.991,0.657,1.225,0.872,0.404,0.698,0.665,���k��,13.0,��
2020/02/23,12:40,0.695,0.989,0.656,1.226,0.870,0.403,0.698,0.663,���k��,9.1,��
2020/02/23,12:50,0.695,0.991,0.656,1.224,0.872,0.403,0.699,0.662,���k��,13.5,��
2020/02/23,13:00,0.692,0.994,0.656,1.223,0.872,0.403,0.696,0.664,���k��,12.8,��
2020/02/23,13:10,0.696,0.993,0.655,1.226,0.872,0.402,0.698,0.664,���k��,9.9,��
2020/02/23,13:20,0.696,0.991,0.657,1.223,0.871,0.401,0.698,0.664,���k��,9.2,��
2020/02/23,13:30,0.694,0.995,0.656,1.225,0.873,0.403,0.698,0.664,��,11.6,��
2020/02/23,13:40,0.696,0.994,0.656,1.225,0.872,0.401,0.698,0.664,��,9.6,��
2020/02/23,13:50,0.696,0.993,0.656,1.225,0.871,0.402,0.698,0.663,��,12.4,��
2020/02/23,14:00,0.696,0.994,0.655,1.226,0.872,0.403,0.699,0.663,���k��,12.2,��
2020/02/23,14:10,0.694,0.992,0.655,1.226,0.871,0.401,0.698,0.662,���k��,10.3,��
2020/02/23,14:20,0.695,0.994,0.655,1.227,0.871,0.400,0.696,0.661,��,12.2,�L
2020/02/23,14:30,0.694,0.996,0.657,1.229,0.873,0.403,0.697,0.660,��,9.5,�L
2020/02/23,14:40,0.695,0.994,0.656,1.227,0.873,0.402,0.695,0.661,��,9.6,��
2020/02/23,14:50,0.696,0.995,0.658,1.228,0.872,0.402,0.697,0.661,��,11.8,��
2020/02/23,15:00,0.696,0.994,0.655,1.229,0.873,0.402,0.697,0.661,��,11.6,��
2020/02/23,15:10,0.696,0.994,0.656,1.227,0.872,0.402,0.698,0.662,���k��,13.0,��
2020/02/23,15:20,0.695,0.994,0.657,1.228,0.873,0.402,0.698,0.662,���k��,12.8,�L
2020/02/23,15:30,0.696,0.996,0.658,1.226,0.874,0.401,0.698,0.662,��,15.8,��
2020/02/23,15:40,0.696,0.996,0.658,1.229,0.874,0.401,0.699,0.663,��,13.9,��
2020/02/23,15:50,0.694,0.996,0.656,1.228,0.875,0.402,0.698,0.664,���k��,14.4,��
2020/02/23,16:00,0.696,0.996,0.658,1.228,0.875,0.400,0.698,0.665,��,13.3,��
2020/02/23,16:10,0.695,0.995,0.658,1.227,0.875,0.402,0.699,0.663,���k��,12.0,��
2020/02/23,16:20,0.695,0.997,0.656,1.229,0.873,0.401,0.699,0.663,���k��,16.4,��
2020/02/23,16:30,0.697,0.996,0.657,1.227,0.873,0.401,0.700,0.663,��,11.3,��
2020/02/23,16:40,0.697,0.994,0.657,1.227,0.873,0.402,0.701,0.665,���k��,11.7,��
2020/02/23,16:50,0.695,0.994,0.656,1.229,0.875,0.401,0.698,0.664,���k��,12.2,��
2020/02/23,17:00,0.697,0.995,0.657,1.227,0.874,0.401,0.700,0.665,���k��,10.6,��
2020/02/23,17:10,0.696,0.997,0.656,1.225,0.874,0.401,0.700,0.664,���k��,13.9,��
2020/02/23,17:20,0.695,0.995,0.655,1.228,0.874,0.400,0.699,0.664,���k��,10.6,��
2020/02/23,17:30,0.693,0.998,0.656,1.227,0.877,0.402,0.698,0.663,���k��,12.7,��
2020/02/23,17:40,0.695,0.999,0.655,1.227,0.877,0.400,0.699,0.663,���k��,12.4,��
2020/02/23,17:50,0.695,0.994,0.656,1.229,0.876,0.403,0.700,0.663,���k��,13.0,��
2020/02/23,18:00,0.696,0.996,0.657,1.228,0.877,0.398,0.700,0.664,�k��,11.4,��
2020/02/23,18:10,0.694,0.998,0.657,1.224,0.874,0.399,0.702,0.665,���k��,19.1,��
2020/02/23,18:20,0.696,0.996,0.654,1.227,0.877,0.400,0.700,0.663,���k��,14.1,��
2020/02/23,18:30,0.695,0.997,0.657,1.227,0.875,0.398,0.702,0.663,���k��,12.4,��
2020/02/23,18:40,0.697,0.995,0.655,1.226,0.875,0.401,0.701,0.664,���k��,13.6,��
2020/02/23,18:50,0.696,0.994,0.655,1.226,0.876,0.400,0.699,0.663,���k��,13.1,��
2020/02/23,19:00,0.696,0.995,0.655,1.227,0.876,0.400,0.699,0.665,���k��,9.0,��
2020/02/23,19:10,0.694,0.995,0.655,1.228,0.876,0.401,0.699,0.663,���k��,9.7,��
2020/02/23,19:20,0.695,0.998,0.656,1.226,0.876,0.399,0.700,0.664,���k��,7.6,��
2020/02/23,19:30,0.695,0.997,0.656,1.226,0.876,0.402,0.702,0.663,���k��,12.0,��
2020/02/23,19:40,0.696,0.998,0.658,1.230,0.876,0.400,0.698,0.664,���k��,9.1,��
2020/02/23,19:50,0.694,0.999,0.656,1.228,0.875,0.400,0.700,0.663,���k��,9.4,��
2020/02/23,20:00,0.695,0.998,0.656,1.227,0.875,0.401,0.700,0.663,���k��,9.7,��
2020/02/23,20:10,0.695,0.998,0.656,1.228,0.876,0.400,0.699,0.665,���k��,9.7,��
2020/02/23,20:20,0.696,0.995,0.656,1.228,0.877,0.402,0.700,0.665,���k��,8.5,��
2020/02/23,20:30,0.695,0.999,0.658,1.228,0.875,0.400,0.700,0.663,���k��,11.3,��
2020/02/23,20:40,0.697,0.996,0.656,1.227,0.875,0.400,0.703,0.665,���k��,11.0,��
2020/02/23,20:50,0.696,0.996,0.656,1.230,0.877,0.399,0.700,0.665,���k��,12.1,��
2020/02/23,21:00,0.697,0.997,0.657,1.230,0.877,0.400,0.700,0.663,���k��,8.9,��
2020/02/23,21:10,0.696,0.998,0.657,1.228,0.875,0.402,0.701,0.664,��,7.2,��
2020/02/23,21:20,0.696,0.998,0.656,1.230,0.876,0.400,0.700,0.664,���k��,4.0,��
2020/02/23,21:30,0.695,0.997,0.658,1.229,0.876,0.400,0.700,0.663,��,5.6,��
2020/02/23,21:40,0.695,0.997,0.658,1.229,0.876,0.401,0.701,0.663,��,3.2,��
2020/02/23,21:50,0.694,0.998,0.656,1.228,0.876,0.401,0.699,0.664,��,4.1,��
2020/02/23,22:00,0.696,1.000,0.657,1.227,0.873,0.399,0.701,0.662,�쐼,0.9,��
2020/02/23,22:10,0.696,0.997,0.657,1.228,0.875,0.401,0.697,0.665,��쐼,1.2,��
2020/02/23,22:20,0.695,0.998,0.653,1.227,0.875,0.401,0.700,0.664,��,2.6,��
2020/02/23,22:30,0.695,0.997,0.655,1.228,0.874,0.401,0.700,0.664,�쓌,3.4,��
2020/02/23,22:40,0.696,0.996,0.657,1.230,0.876,0.401,0.699,0.665,��,3.4,��
2020/02/23,22:50,0.694,0.998,0.656,1.227,0.875,0.401,0.699,0.664,��,4.0,��
2020/02/23,23:00,0.696,0.997,0.658,1.228,0.877,0.399,0.699,0.664,��,3.9,��
2020/02/23,23:10,0.695,0.997,0.658,1.228,0.878,0.402,0.699,0.664,��쐼,5.4,��
2020/02/23,23:20,0.694,0.997,0.657,1.228,0.877,0.401,0.700,0.663,��,0.6,��
2020/02/23,23:30,0.692,0.997,0.658,1.228,0.874,0.400,0.699,0.665,��,1.1,��
2020/02/23,23:40,0.694,0.997,0.657,1.227,0.875,0.400,0.700,0.665,��쓌,1.2,��
2020/02/23,23:50,0.697,0.997,0.656,1.227,0.874,0.399,0.698,0.663,���쐼,0.6,��
